Location: Napier
(39.4830°S, 176.9170°E)
Time: 14:40:08
(UTC+12:00)

FengYun 1-2 T - Pass Details

Date: 15 August 2020
Orbit: 847 x 880 km, 98.7° (Epoch: 23 September)

Event Time Altitude Azimuth Distance (km) Brightness Sun altitude
Rises 19:03:48 0° 167° (SSE) 3,493 7.2 -17.8°
Reaches altitude 10° 19:06:13 10° 167° (SSE) 2,544 6.5 -18.2°
Maximum altitude 19:11:53 89° 253° (WSW) 876 4.2 -19.3°
Drops below altitude 10° 19:17:27 10° 344° (NNW) 2,490 6.8 -20.4°
Sets 19:19:47 0° 344° (NNW) 3,414 7.6 -20.8°
